Location: Newark
(43.0000°N, 1.6781°W)
Time: 08:36:49
(UTC+00:00)

Vanguard 1 - Pass Details

Date: 27 April 2021
Orbit: 649 x 3834 km, 34.2° (Epoch: 04 May)

Event Time Altitude Azimuth Distance (km) Brightness Sun altitude
Rises 19:05:02 0° 281° (W) 7,009 16.8 -1.1°
Reaches altitude 10° 19:10:18 10° 271° (W) 6,348 15.7 -2.0°
Maximum altitude 19:26:53 29° 222° (SW) 5,434 14.0 -4.8°
Drops below altitude 10° 19:44:19 10° 171° (S) 6,580 13.9 -7.7°
Sets 19:50:06 0° 161° (SSE) 7,281 14.1 -8.6°
